Gastonia, NC

11:14 AM EST on January 23, 2018 (GMT -0500)
Gastonia Municipal

Weather History for KAKH - October, 2013

Change the Weather History Date:

Friday, October 18, 2013

  Actual Average (KCLT) Record (KCLT)
Temperature  
Mean Temperature 63 °F -  
Max Temperature 70 °F 70 °F 87 °F (1938)
Min Temperature 57 °F 48 °F 31 °F (2001)
Degree Days  
Heating Degree Days 2    
Growing Degree Days 13 (Base 50)    
Moisture  
Dew Point 58 °F    
Average Humidity 85    
Maximum Humidity 100    
Minimum Humidity 56    
Precipitation  
Precipitation 0.00 in - - ()
Sea Level Pressure  
Sea Level Pressure 29.96 in    
Wind  
Wind Speed 2 mph (NE)    
Max Wind Speed 9 mph    
Max Gust Speed -    
Visibility 8 miles    
Events Fog    
Averages and records for this station are not official NWS values.
T = Trace of Precipitation, MM = Missing Value Source: NWS Daily Summary

Daily Weather History Graph

Daily Weather History Graph

Search for Another Location

Airport or City:

Trip Planner

Search our weather history database for the weather conditions in past years. The results will help you decide how hot, cold, wet, or windy it might be!

Date:

Astronomy

Oct. 18, 2013 Rise Set
Actual Time 7:33 AM EDT 6:45 PM EDT
Civil Twilight 7:07 AM EDT 7:11 PM EDT
Nautical Twilight 6:38 AM EDT 7:40 PM EDT
Astronomical Twilight 6:08 AM EDT 8:09 PM EDT
Moon 6:35 PM EDT (10/18) 7:07 AM EDT (10/18)
Length of Visible Light 12h 03m
Length of Day
11h 11m
Full, 100% of the Moon is Illuminated
Oct 18
Full
Oct 18
Full
Oct 26
Last Quarter
Nov 3
New
Nov 10
First Quarter

Hourly Weather History & Observations

Time (EDT) Temp. Dew Point Humidity Pressure Visibility Wind Dir Wind Speed Gust Speed Precip Events Conditions
12:54 AM 66.9 °F 64.9 °F 93% 29.90 in 7.0 mi Calm Calm - N/A   Overcast
1:05 AM 66.2 °F 64.4 °F 94% 29.91 in 7.0 mi Calm Calm - N/A   Overcast
1:35 AM 66.2 °F 64.4 °F 94% 29.91 in 8.0 mi Calm Calm - N/A   Mostly Cloudy
1:54 AM 64.9 °F 63.0 °F 93% 29.90 in 7.0 mi Calm Calm - N/A   Mostly Cloudy
2:48 AM 64.4 °F 62.6 °F 94% 29.92 in 1.8 mi Calm Calm - N/A   Mostly Cloudy
2:54 AM 63.0 °F 63.0 °F 100% 29.91 in 0.5 mi Calm Calm - N/A Fog Fog
3:08 AM 64.4 °F 62.6 °F 94% 29.92 in 2.0 mi Calm Calm - N/A   Mostly Cloudy
3:17 AM 62.6 °F 62.6 °F 100% 29.92 in 4.0 mi Calm Calm - N/A   Mostly Cloudy
3:28 AM 62.6 °F 60.8 °F 94% 29.92 in 0.8 mi Calm Calm - N/A   Mostly Cloudy
3:33 AM 62.6 °F 60.8 °F 94% 29.92 in 0.2 mi Calm Calm - N/A Fog Fog
3:43 AM 62.6 °F 62.6 °F 100% 29.92 in 1.0 mi Calm Calm - N/A   Scattered Clouds
3:46 AM 62.6 °F 62.6 °F 100% 29.93 in 3.0 mi North 3.5 mph - N/A   Scattered Clouds
3:54 AM 63.0 °F 62.1 °F 97% 29.92 in 8.0 mi North 5.8 mph - N/A   Mostly Cloudy
4:54 AM 60.1 °F 59.0 °F 96% 29.93 in 10.0 mi North 3.5 mph - N/A   Partly Cloudy
5:54 AM 59.0 °F 57.9 °F 96% 29.95 in 9.0 mi Calm Calm - N/A   Scattered Clouds
6:54 AM 59.0 °F 57.0 °F 93% 29.96 in 10.0 mi NNE 3.5 mph - N/A   Overcast
7:54 AM 57.0 °F 55.9 °F 96% 29.98 in 10.0 mi NNE 3.5 mph - N/A   Partly Cloudy
8:07 AM 57.2 °F 55.4 °F 94% 29.99 in 10.0 mi NNE 4.6 mph - N/A   Mostly Cloudy
8:54 AM 57.9 °F 55.9 °F 93% 30.01 in 10.0 mi NE 6.9 mph - N/A   Overcast
9:50 AM 60.8 °F 53.6 °F 77% 30.04 in 10.0 mi NNE 8.1 mph - N/A   Mostly Cloudy
9:54 AM 61.0 °F 53.1 °F 75% 30.04 in 10.0 mi NNE 9.2 mph - N/A   Mostly Cloudy
10:54 AM 63.0 °F 52.0 °F 67% 30.03 in 10.0 mi ENE 8.1 mph - N/A   Mostly Cloudy
11:54 AM 66.0 °F 52.0 °F 60% 30.03 in 10.0 mi East 6.9 mph - N/A   Mostly Cloudy
12:54 PM 66.0 °F 51.1 °F 59% 30.01 in 10.0 mi East 4.6 mph - N/A   Overcast
1:17 PM 69.8 °F 53.6 °F 56% 30.01 in 10.0 mi NE 9.2 mph - N/A   Overcast
1:54 PM 66.9 °F 53.1 °F 61% 29.99 in 10.0 mi ESE 3.5 mph - N/A   Mostly Cloudy
2:54 PM 68.0 °F 53.1 °F 59% 29.97 in 10.0 mi East 3.5 mph - N/A   Mostly Cloudy
3:54 PM 68.0 °F 54.0 °F 61% 29.96 in 10.0 mi SE 3.5 mph - N/A   Mostly Cloudy
4:54 PM 68.0 °F 55.0 °F 63% 29.96 in 10.0 mi Calm Calm - N/A   Mostly Cloudy
5:54 PM 66.0 °F 55.9 °F 70% 29.96 in 10.0 mi Calm Calm - N/A   Scattered Clouds
6:54 PM 61.0 °F 57.9 °F 90% 29.97 in 10.0 mi Calm Calm - N/A   Clear
7:54 PM 61.0 °F 57.0 °F 87% 29.98 in 10.0 mi Calm Calm - N/A   Clear
8:54 PM 60.1 °F 57.0 °F 90% 29.99 in 10.0 mi Calm Calm - N/A   Mostly Cloudy
9:54 PM 59.0 °F 55.9 °F 90% 29.99 in 10.0 mi Calm Calm - N/A   Mostly Cloudy
10:54 PM 59.0 °F 55.9 °F 90% 29.99 in 10.0 mi Calm Calm - N/A   Mostly Cloudy
11:50 PM 59.0 °F 57.2 °F 94% 29.98 in 10.0 mi Calm Calm - N/A   Mostly Cloudy
11:54 PM 59.0 °F 57.0 °F 93% 29.97 in 10.0 mi Calm Calm - N/A   Overcast